Regional Weather Roundup
Issued by NWS

Home | Current Version | Previous Version | Graphics & Text | Print | Product List | Glossary On
Versions: 1 2 3 4 5 6 7 8 9 10 11 12 13 14 15 16 17 18 19 20 21 22 23 24 25 26 27
000
ASUS45 KCYS 250210
RWRWY

WYOMING REGIONAL WEATHER ROUNDUP
NATIONAL WEATHER SERVICE CHEYENNE WY
800 PM MDT FRI MAR 24 2017

NOTE:  "FAIR" INDICATES FEW OR NO CLOUDS BELOW 12,000 FEET
WITH NO SIGNIFICANT WEATHER AND/OR OBSTRUCTIONS TO VISIBILITY.

WYZ001-250300-
YELLOWSTONE NATIONAL PARK

CITY           SKY/WX    TMP DP  RH WIND       PRES   REMARKS
LK YELLOWSTONE   N/A     37  19  48 VRB3      30.06S
W YELLOWSTONE  NOT AVBL

$$
WYZ002>013-054>058-071-098>099-250300-
NORTHERN WYOMING

CITY           SKY/WX    TMP DP  RH WIND       PRES   REMARKS
JACKSON        CLOUDY    43  27  52 SW10      30.06S
CODY           FAIR      52  17  25 SW9       29.91S
GREYBULL       FAIR      52  33  48 E8        29.90F
WORLAND        FAIR      49  35  58 S9        29.92F
SHERIDAN       FAIR      49  32  52 S5        29.86F
BUFFALO        FAIR      51  29  42 S18       29.91S
GILLETTE       FAIR      46  32  58 S10       29.96F
HULETT         FAIR      46  30  53 SE10      30.01F
NEWCASTLE      FAIR      46  27  46 S10       30.06R

$$
WYZ014>020-022>026-101>103-250300-
CENTRAL WYOMING

CITY           SKY/WX    TMP DP  RH WIND       PRES   REMARKS
BIG PINEY      FAIR      36  30  79 SE7       30.12S WCI  30
PINEDALE       FAIR      34  27  75 CALM      30.13F
DUBOIS         FAIR      36  23  60 N15       30.03S WCI  26
LANDER         FAIR      50  13  22 SW15      29.97S
RIVERTON       FAIR      50  30  46 SE5       29.99R
CASPER         FAIR      44  25  47 SW8       30.03R
DOUGLAS        FAIR      44  28  53 SE10      30.06R

$$
WYZ021-027>030-104>119-250300-
SOUTHERN WYOMING

CITY           SKY/WX    TMP DP  RH WIND       PRES   REMARKS
EVANSTON       FAIR      42  30  62 W7        30.10S
KEMMERER         N/A     36  27  69 N9        30.12S WCI  29
FORT BRIDGER   FAIR      45  33  62 N5        30.14S
ROCK SPRINGS   FAIR      48  27  44 CALM      30.10S
DIXON            N/A     46  20  35 CALM      30.15S
RAWLINS        FAIR      45  20  36 SW9       30.11R
SARATOGA       FAIR      39  19  45 SW8       30.13R WCI  34
LARAMIE        FAIR      40  17  39 E3        30.12S
CHEYENNE       FAIR      42  22  44 E9        30.13R
TORRINGTON     FAIR      48  26  42 SE10      30.08R
PINE BLUFFS    FAIR      41  27  56 E7        30.13R

$$




USA.gov is the U.S. government's official web portal to all federal, state and local government web resources and services.